Total_Precipitation_Accumulation
0.00 0.00 0.01 0.01 0.01 0.01 0.02 0.03 0.07 0.13 0.14 0.21 0.34 0.44 0.61 0.73 0.93 1.08 1.07 1.00 0.96 0.97 1.00 1.03 0.98 0.86 0.97 1.06 0.98 1.04 0.98 0.85 0.54 0.37 0.24 0.17 0.14 0.13 0.13 0.16 0.16 0.19 0.23 0.28
0.01 0.02 0.02 0.01 0.01 0.01 0.03 0.05 0.10 0.13 0.13 0.18 0.32 0.56 0.68 0.74 0.75 0.83 0.89 0.81 0.77 0.79 0.79 0.67 0.57 0.57 0.49 0.51 0.52 0.51 0.51 0.42 0.25 0.18 0.15 0.13 0.11 0.08 0.07 0.07 0.09 0.09 0.12 0.17
0.00 0.01 0.01 0.01 0.01 0.02 0.04 0.05 0.06 0.10 0.10 0.17 0.31 0.75 0.81 0.69 0.61 0.56 0.65 0.68 0.60 0.58 0.50 0.37 0.31 0.27 0.36 0.52 0.43 0.27 0.26 0.21 0.13 0.11 0.10 0.10 0.10 0.10 0.09 0.08 0.07 0.08 0.07 0.09
0.01 0.01 0.01 0.01 0.02 0.01 0.03 0.03 0.02 0.02 0.06 0.28 0.38 0.77 0.83 0.67 0.66 0.51 0.47 0.48 0.35 0.27 0.25 0.24 0.20 0.18 0.23 0.30 0.28 0.22 0.21 0.20 0.12 0.09 0.08 0.08 0.07 0.08 0.08 0.07 0.06 0.07 0.06 0.07
0.01 0.01 0.01 0.01 0.01 0.01 0.01 0.01 0.01 0.03 0.07 0.18 0.30 0.63 0.80 0.59 0.67 0.47 0.29 0.19 0.11 0.08 0.09 0.13 0.12 0.10 0.09 0.09 0.13 0.16 0.25 0.29 0.20 0.14 0.10 0.09 0.07 0.06 0.07 0.07 0.07 0.08 0.10 0.11
0.01 0.01 0.01 0.01 0.01 0.01 0.01 0.01 0.07 0.14 0.18 0.37 0.40 0.42 0.67 0.47 0.35 0.20 0.12 0.07 0.04 0.03 0.03 0.06 0.06 0.05 0.05 0.06 0.07 0.10 0.19 0.26 0.21 0.16 0.14 0.15 0.15 0.13 0.12 0.11 0.11 0.14 0.17 0.19
0.06 0.05 0.03 0.01 0.01 0.02 0.01 0.02 0.14 0.31 0.44 0.54 0.27 0.43 0.73 0.35 0.19 0.09 0.06 0.03 0.02 0.01 0.01 0.02 0.02 0.03 0.03 0.04 0.04 0.04 0.08 0.13 0.12 0.10 0.11 0.16 0.23 0.29 0.30 0.25 0.22 0.20 0.21 0.23
0.09 0.14 0.06 0.02 0.01 0.01 0.01 0.01 0.03 0.06 0.13 0.23 0.26 0.82 0.65 0.18 0.09 0.05 0.02 0.02 0.02 0.01 0.01 0.01 0.01 0.02 0.01 0.01 0.01 0.02 0.03 0.03 0.03 0.04 0.05 0.07 0.11 0.18 0.26 0.31 0.30 0.30 0.32 0.27
0.03 0.03 0.02 0.02 0.01 0.01 0.01 0.00 0.01 0.01 0.03 0.13 0.35 0.51 0.26 0.07 0.03 0.02 0.01 0.01 0.01 0.00 0.00 0.00 0.00 0.00 0.00 0.00 0.00 0.00 0.01 0.01 0.01 0.01 0.01 0.01 0.02 0.04 0.06 0.10 0.14 0.21 0.31 0.30
0.02 0.01 0.01 0.01 0.01 0.02 0.02 0.01 0.01 0.01 0.03 0.09 0.24 0.40 0.35 0.11 0.04 0.02 0.01 0.01 0.00 0.00 0.00 0.00 0.00 0.00 0.00 0.00 0.00 0.00 0.00 0.00 0.00 0.00 0.00 0.00 0.01 0.01 0.02 0.03 0.04 0.06 0.11 0.15
0.01 0.01 0.01 0.01 0.02 0.03 0.02 0.01 0.01 0.01 0.02 0.03 0.11 0.18 0.15 0.08 0.06 0.02 0.01 0.00 0.00 0.00 0.00 0.00 0.00 0.00 0.00 0.00 0.00 0.00 0.00 0.00 0.00 0.00 0.00 0.00 0.00 0.00 0.00 0.01 0.01 0.02 0.02 0.03
0.01 0.01 0.01 0.02 0.02 0.02 0.02 0.01 0.01 0.01 0.02 0.02 0.03 0.04 0.04 0.03 0.04 0.02 0.01 0.00 0.00 0.00 0.00 0.00 0.00 0.00 0.00 0.00 0.00 0.00 0.00 0.00 0.00 0.00 0.00 0.00 0.00 0.00 0.00 0.00 0.00 0.00 0.01 0.01
0.01 0.01 0.01 0.05 0.08 0.04 0.01 0.02 0.02 0.02 0.03 0.03 0.03 0.05 0.04 0.03 0.02 0.01 0.01 0.01 0.00 0.00 0.00 0.00 0.00 0.00 0.00 0.00 0.00 0.00 0.00 0.00 0.00 0.00 0.00 0.00 0.00 0.00 0.00 0.00 0.00 0.01 0.01 0.01
0.01 0.00 0.00 0.03 0.05 0.03 0.02 0.02 0.03 0.02 0.01 0.02 0.02 0.03 0.03 0.02 0.02 0.02 0.01 0.01 0.00 0.00 0.00 0.00 0.00 0.00 0.00 0.00 0.00 0.00 0.00 0.00 0.00 0.00 0.01 0.01 0.01 0.01 0.01 0.01 0.01 0.01 0.02 0.02
0.01 0.00 0.00 0.00 0.01 0.01 0.02 0.02 0.02 0.02 0.02 0.01 0.01 0.02 0.02 0.02 0.03 0.02 0.01 0.01 0.00 0.00 0.00 0.00 0.00 0.00 0.00 0.00 0.00 0.00 0.00 0.00 0.01 0.02 0.02 0.01 0.01 0.01 0.01 0.01 0.02 0.03 0.03 0.03
0.01 0.00 0.00 0.00 0.00 0.01 0.01 0.02 0.03 0.03 0.02 0.02 0.03 0.03 0.04 0.03 0.03 0.02 0.02 0.01 0.01 0.00 0.00 0.00 0.00 0.00 0.00 0.00 0.00 0.00 0.00 0.00 0.01 0.01 0.01 0.01 0.02 0.03 0.04 0.04 0.05 0.06 0.07 0.09
0.01 0.01 0.01 0.00 0.01 0.01 0.01 0.03 0.03 0.03 0.03 0.03 0.04 0.06 0.06 0.06 0.05 0.04 0.03 0.02 0.01 0.01 0.01 0.01 0.01 0.01 0.00 0.00 0.01 0.01 0.01 0.01 0.01 0.01 0.01 0.02 0.03 0.04 0.06 0.08 0.11 0.12 0.13 0.14
0.02 0.02 0.01 0.00 0.01 0.01 0.02 0.05 0.05 0.06 0.08 0.09 0.07 0.07 0.08 0.09 0.08 0.06 0.05 0.04 0.02 0.02 0.02 0.02 0.02 0.01 0.01 0.01 0.01 0.01 0.01 0.01 0.02 0.02 0.03 0.04 0.06 0.08 0.10 0.13 0.15 0.17 0.20 0.21
0.03 0.03 0.01 0.01 0.02 0.03 0.05 0.06 0.06 0.08 0.11 0.12 0.12 0.11 0.11 0.09 0.10 0.10 0.07 0.05 0.03 0.03 0.02 0.02 0.02 0.01 0.01 0.02 0.02 0.02 0.02 0.03 0.03 0.04 0.06 0.08 0.11 0.13 0.15 0.17 0.19 0.24 0.26 0.23
0.04 0.04 0.04 0.03 0.03 0.05 0.07 0.10 0.08 0.07 0.12 0.17 0.21 0.19 0.15 0.12 0.14 0.11 0.06 0.04 0.03 0.03 0.02 0.01 0.01 0.01 0.02 0.03 0.03 0.03 0.05 0.06 0.08 0.10 0.11 0.14 0.17 0.19 0.20 0.21 0.23 0.25 0.29 0.29
0.10 0.11 0.10 0.08 0.07 0.09 0.10 0.11 0.12 0.19 0.22 0.23 0.23 0.15 0.09 0.07 0.06 0.06 0.05 0.04 0.03 0.03 0.02 0.01 0.01 0.02 0.03 0.05 0.06 0.09 0.10 0.11 0.12 0.13 0.16 0.17 0.19 0.22 0.23 0.25 0.26 0.29 0.30 0.29
0.09 0.11 0.14 0.16 0.20 0.23 0.19 0.19 0.25 0.28 0.17 0.10 0.07 0.06 0.05 0.04 0.03 0.03 0.03 0.03 0.03 0.02 0.02 0.02 0.02 0.03 0.05 0.07 0.10 0.11 0.12 0.12 0.12 0.15 0.18 0.20 0.23 0.25 0.27 0.31 0.32 0.31 0.30 0.28
0.09 0.13 0.17 0.23 0.30 0.25 0.23 0.20 0.16 0.12 0.09 0.07 0.07 0.06 0.05 0.04 0.03 0.02 0.01 0.01 0.01 0.01 0.01 0.02 0.03 0.04 0.06 0.08 0.11 0.14 0.15 0.15 0.16 0.19 0.21 0.22 0.23 0.26 0.30 0.34 0.35 0.35 0.36 0.35
0.09 0.09 0.08 0.15 0.20 0.18 0.15 0.13 0.10 0.09 0.09 0.07 0.06 0.05 0.04 0.03 0.02 0.01 0.00 0.00 0.00 0.00 0.01 0.02 0.03 0.05 0.06 0.07 0.10 0.14 0.16 0.18 0.21 0.21 0.20 0.21 0.21 0.21 0.25 0.32 0.35 0.36 0.37 0.36
0.07 0.10 0.13 0.18 0.20 0.20 0.19 0.17 0.11 0.09 0.09 0.08 0.06 0.04 0.03 0.02 0.01 0.01 0.00 0.00 0.00 0.00 0.01 0.02 0.04 0.05 0.06 0.07 0.09 0.11 0.14 0.19 0.22 0.22 0.21 0.20 0.18 0.19 0.22 0.27 0.29 0.26 0.27 0.25
0.06 0.09 0.17 0.25 0.28 0.29 0.26 0.17 0.11 0.10 0.10 0.08 0.05 0.03 0.02 0.01 0.01 0.00 0.00 0.00 0.00 0.01 0.02 0.03 0.04 0.04 0.05 0.05 0.06 0.07 0.10 0.16 0.24 0.27 0.24 0.21 0.19 0.20 0.22 0.23 0.24 0.23 0.20 0.18